Дангара

Таджикистан     38°05′52″N   69°20′12″E
темп.,
°C
ветер,
м/с
пор.,
м/с
влажн.,
%
обл.,
%
осадки,
мм/ч
давл.,
гПа
погр.,
м
12 августа, пт
пт1223:00+24св01220 0.0 100711
02:00+22св22270 0.0 100715
05:00+21св22294 0.0 100817
08:00+27всв11210 0.0 1008254
11:00+32юз32140 0.0 10061637
14:00+36юз43120 0.0 10022412
17:00+36юз54120 0.0 10012321
20:00+28зюз22200 0.0 100313
13 августа, сб
сб1323:00+25св11230 0.0 100411
02:00+23св22270 0.0 100513
05:00+22св22280 0.0 100617
08:00+28всв11200 0.0 1006244
11:00+34юз32140 0.0 10051586
14:00+37юз43120 0.0 10022508
17:00+37юз54110 0.0 10002285
20:00+28юз22180 0.0 100212
14 августа, вс
вс1423:00+26св11220 0.0 100312
02:00+24св22240 0.0 100316
05:00+22св22260 0.0 100417
08:00+28всв11180 0.0 1005233
11:00+35юз32121 0.0 10031486
14:00+38юз431087 0.0 10012395
17:00+38юз541040 0.0 9992300
20:00+29зюз22170 0.0 100113
15 августа, пн
пн1523:00+27ссв11191 0.0 100211
02:00+25св22220 0.0 100314
05:00+23св22237 0.0 100316
08:00+29всв11163 0.0 1004212
11:00+35юз33122 0.0 10031600
14:00+38юз43105 0.0 10012532
17:00+38юз5494 0.0 10002326
20:00+30юз22165 0.0 100213
16 августа, вт
вт1623:00+27в21195 0.0 100311
02:00+24св22225 0.0 100413
05:00+23св22230 0.0 100513
08:00+29в11160 0.0 1006201
11:00+35юз34111 0.0 10051500
14:00+37юз54104 0.0 10022423
17:00+37юз54100 0.0 10012105
20:00+29ююз33150 0.0 100317